Bat Cave, NC

7:46 AM EDT on August 26, 2016 (GMT -0400)
Asheville Regional

Weather History for KAVL - January, 2013

Change the Weather History Date:

Friday, January 18, 2013

  Actual Average Record
Temperature  
Mean Temperature 39 °F 37 °F  
Max Temperature 49 °F 47 °F 72 °F (1933)
Min Temperature 29 °F 26 °F 0 °F (1994)
Degree Days  
Heating Degree Days 26 28  
Month to date heating degree days 351 504  
Since 1 July heating degree days 1908 2165  
Cooling Degree Days 0 0  
Month to date cooling degree days 0 0  
Year to date cooling degree days 0 0  
Moisture  
Dew Point 23 °F    
Average Humidity 60    
Maximum Humidity 92    
Minimum Humidity 28    
Precipitation  
Precipitation 0.00 in 0.12 in 2.26 in (1936)
Month to date precipitation 5.71 2.08  
Year to date precipitation 5.71 2.08  
Snow  
Snow 0.00 in 0.20 in 1.20 in (1955)
Month to date snowfall 0.0 2.4  
Since 1 July snowfall T 3.4  
Snow Depth 0.00 in    
Sea Level Pressure  
Sea Level Pressure 30.41 in    
Wind  
Wind Speed 7 mph (NNW)    
Max Wind Speed 21 mph    
Max Gust Speed 26 mph    
Visibility 10 miles    
Events      
T = Trace of Precipitation, MM = Missing Value Source: NWS Daily Summary

Daily Weather History Graph

Daily Weather History Graph

Search for Another Location

Airport or City:

Trip Planner

Search our weather history database for the weather conditions in past years. The results will help you decide how hot, cold, wet, or windy it might be!

Date:

Astronomy

Jan. 18, 2013 Rise Set
Actual Time 7:37 AM EST 5:44 PM EST
Civil Twilight 7:10 AM EST 6:11 PM EST
Nautical Twilight 6:39 AM EST 6:42 PM EST
Astronomical Twilight 6:08 AM EST 7:13 PM EST
Moon 11:33 AM EST (1/18) 12:16 AM EST (1/18)
Length of Visible Light 11h 01m
Length of Day
10h 06m
Waxing Crescent, 47% of the Moon is Illuminated
Jan 18
Waxing Crescent
Jan 18
First Quarter
Jan 26
Full
Feb 3
Last Quarter
Feb 10
New

Hourly Weather History & Observations

Time (EST) Temp. Windchill Dew Point Humidity Pressure Visibility Wind Dir Wind Speed Gust Speed Precip Events Conditions
12:35 AM 33.8 °F 23.2 °F 26.6 °F 75% 30.23 in 10.0 mi North 17.3 mph 25.3 mph N/A   Scattered Clouds
12:54 AM 32.0 °F 21.2 °F 26.1 °F 79% 30.26 in 10.0 mi NNW 16.1 mph 24.2 mph N/A   Clear
1:54 AM 32.0 °F 24.8 °F 24.1 °F 73% 30.29 in 10.0 mi North 8.1 mph - N/A   Clear
2:54 AM 30.9 °F 22.8 °F 23.0 °F 72% 30.32 in 10.0 mi North 9.2 mph 18.4 mph N/A   Clear
3:54 AM 30.9 °F 20.7 °F 21.9 °F 69% 30.32 in 10.0 mi NNW 13.8 mph 20.7 mph N/A   Clear
4:54 AM 30.9 °F 21.2 °F 21.9 °F 69% 30.32 in 10.0 mi North 12.7 mph 20.7 mph N/A   Clear
5:54 AM 30.9 °F 21.2 °F 21.0 °F 67% 30.32 in 10.0 mi North 12.7 mph 21.9 mph N/A   Clear
6:54 AM 30.0 °F 21.1 °F 21.9 °F 72% 30.35 in 10.0 mi North 10.4 mph 19.6 mph N/A   Clear
7:54 AM 30.0 °F 21.1 °F 23.0 °F 75% 30.40 in 10.0 mi North 10.4 mph - N/A   Clear
8:54 AM 30.9 °F 21.7 °F 24.1 °F 76% 30.44 in 10.0 mi North 11.5 mph - N/A   Clear
9:54 AM 33.1 °F 23.9 °F 24.1 °F 70% 30.48 in 10.0 mi North 12.7 mph 20.7 mph N/A   Clear
10:54 AM 35.6 °F 27.5 °F 23.0 °F 60% 30.47 in 10.0 mi North 11.5 mph 20.7 mph N/A   Clear
11:54 AM 39.9 °F 32.9 °F 21.9 °F 49% 30.48 in 10.0 mi NNW 11.5 mph - N/A   Clear
12:54 PM 42.1 °F 36.1 °F 17.1 °F 37% 30.45 in 10.0 mi NNW 10.4 mph - N/A   Clear
1:54 PM 45.0 °F 41.8 °F 16.0 °F 31% 30.44 in 10.0 mi WNW 5.8 mph - N/A   Clear
2:54 PM 46.9 °F - 16.0 °F 29% 30.43 in 10.0 mi North 3.5 mph - N/A   Clear
3:54 PM 48.0 °F - 18.0 °F 30% 30.43 in 10.0 mi NNW 3.5 mph - N/A   Clear
4:54 PM 48.0 °F - 18.0 °F 30% 30.44 in 10.0 mi Calm Calm - N/A   Clear
5:54 PM 45.0 °F - 19.0 °F 36% 30.45 in 10.0 mi Calm Calm - N/A   Clear
6:54 PM 39.0 °F - 24.1 °F 55% 30.48 in 10.0 mi Calm Calm - N/A   Clear
7:54 PM 35.1 °F - 28.9 °F 78% 30.49 in 10.0 mi Calm Calm - N/A   Clear
8:54 PM 33.1 °F - 27.0 °F 78% 30.49 in 10.0 mi Calm Calm - N/A   Clear
9:54 PM 30.9 °F - 26.1 °F 82% 30.50 in 10.0 mi Calm Calm - N/A   Clear
10:54 PM 28.9 °F - 27.0 °F 92% 30.49 in 10.0 mi Calm Calm - N/A   Clear
11:54 PM 28.9 °F - 26.1 °F 89% 30.47 in 10.0 mi Calm Calm - N/A   Clear